Regional Weather Roundup
Issued by NWS

Home | Current Version | Previous Version | Graphics & Text | Print | Product List | Glossary On
Versions: 1 2 3 4 5 6 7 8 9 10 11 12 13 14 15 16 17 18 19 20 21 22 23 24 25 26 27 28 29 30 31 32 33 34 35 36 37 38 39 40 41 42 43 44 45 46 47 48 49 50
000
ASUS43 KMPX 240401
RWRMN
WEATHER ROUNDUP FOR MINNESOTA
NATIONAL WEATHER SERVICE TWIN CITIES/CHANHASSEN MN
1100 PM CDT THU OCT 23 2014


NOTE: "FAIR" INDICATES FEW OR NO CLOUDS BELOW 12,000 FEET WITH NO
SIGNIFICANT WEATHER AND/OR OBSTRUCTIONS TO VISIBILITY. N/A MEANS
CURRENT SKY AND/OR WEATHER CONDITIONS ARE NOT AVAILABLE.

MNZ060>063-068>070-240500-
   Twin Cities Metro

CITY           SKY/WX    TMP DP  RH WIND       PRES   REMARKS
TWIN CITIES    CLEAR     50  48  93 E6        29.96F
ST PAUL          N/A     50  48  93 SE7       29.97F
CRYSTAL        CLEAR     51  48  89 SE5       29.94F
BLAINE         CLEAR     52  52 100 SE7       29.95F
LAKEVILLE      CLEAR     45  45 100 S3        29.96F FOG
EDEN PRAIRIE   CLEAR     50  46  86 S6        29.95F
SOUTH ST PAUL  CLEAR     50  48  95 SE3       29.96F FOG
LAKE ELMO      FAIR      48  48 100 S3        29.98F
$$
MNZ001>005-007-008-013>017-022>024-027-028-240500-
   Northwest Minnesota

CITY           SKY/WX    TMP DP  RH WIND       PRES   REMARKS
BEMIDJI        PTCLDY    53  38  57 S5        29.84F
HALLOCK        CLOUDY    50  41  71 S8        29.75S
ROSEAU         CLOUDY    48  43  81 S8        29.77S
WARROAD        CLOUDY    54  43  66 S5        29.77F
THIEF RVR FALL CLOUDY    54  39  58 S8        29.80S
CROOKSTON      CLOUDY    52  43  71 SW10      29.80S
FOSSTON        MOCLDY    52  37  58 S10       29.83S
DETROIT LAKES  PTCLDY    52  41  66 S8        29.87S
MOORHEAD       CLEAR     52  41  66 S7        29.84S
PARK RAPIDS    MOCLDY    50  41  71 S8        29.87R
MAHNOMEN       FAIR      51  38  59 S9        29.83S
$$
MNZ006-009>011-018-025>026-240500-
   North Central Minnesota

CITY           SKY/WX    TMP DP  RH WIND       PRES   REMARKS
BAUDETTE       CLOUDY    47  38  71 S3        29.79F
FLAG ISLAND    CLOUDY    50  46  87 S5        29.76S
INTL FALLS     PTCLDY    47  39  74 VRB3      29.83S
WASKISH        CLOUDY    54  37  54 CALM      29.81S
BIG FORK       CLEAR     45  37  76 CALM      29.86S
LONGVILLE      PTCLDY    54  39  58 S3        29.88S
GRAND RAPIDS   PTCLDY    50  43  76 S8        29.88S
CRANE LAKE     CLEAR     46  45  93 CALM      29.87F
ORR            CLEAR     48  45  87 S6        29.85S
COOK           CLEAR     52  46  82 S3        29.88F
WALKER         FAIR      54  39  57 SW9       29.87R
$$
MNZ012-019>021-037-240500-
   Northeast Minnesota

CITY           SKY/WX    TMP DP  RH WIND       PRES   REMARKS
DULUTH         CLEAR     48  45  89 S7        29.92F
ELY            CLEAR     46  45  93 S5        29.90S
HIBBING        FOG       35  33  92 CALM      29.90S VSB 1/2
EVELETH        FOG       36  36 100 CALM      29.91F VSB 1/4
DULUTH HARBOR  FAIR      48  46  93 CALM      29.94S FOG
TWO HARBORS    PTCLDY    39  28  65 CALM      29.92S HAZE
SILVER BAY     FOG       39  37  93 CALM      29.92S VSB 1/4
GRAND MARAIS     N/A     48  46  93 CALM      29.94F
G MARAIS ARPRT FOG       46  43  87 S3        29.93F VSB 1/4
$$
MNZ029>031-032-039>041-046>048-054>057-064-240500-
   West Central Minnesota

CITY           SKY/WX    TMP DP  RH WIND       PRES   REMARKS
FERGUS FALLS   PTCLDY    52  39  62 S8        29.87F
WHEATON        PTCLDY    54  43  66 S10       29.88F
MORRIS         MOCLDY    48  41  76 S7        29.89F
ALEXANDRIA     MOCLDY    55  41  59 S9        29.92S
ELBOW LAKE     FAIR      49  41  72 S9        29.89S
WADENA         MOCLDY    50  41  71 S5        29.88F
GLENWOOD       MOCLDY    48  43  81 S8        29.92F
APPLETON       MOCLDY    54  43  66 S6        29.89F
BENSON         PTCLDY    48  43  81 S7        29.91F
ORTONVILLE     MOCLDY    48  39  71 S3        29.89F
MADISON        MOCLDY    48  43  81 S5        29.90F
WILLMAR        FAIR      48  39  71 SE5       29.95S
$$
MNZ033>034-036-042>043-049>051-058-059-240500-
   Central Minnesota

CITY           SKY/WX    TMP DP  RH WIND       PRES   REMARKS
ST CLOUD       PTCLDY    47  39  74 CALM      29.94R
SAUK CENTRE    FAIR      47  40  76 S3        29.92S
PAYNESVILLE    PTCLDY    50  38  62 SE7       29.94S
AITKIN         PTCLDY    54  46  76 S6        29.89R
PINE RIVER     PTCLDY    52  39  62 S5        29.92S
BRAINERD       PTCLDY    52  37  56 S9        29.91S
STAPLES        PTCLDY    48  39  71 S8        29.90S
LONG PRAIRIE   FAIR      52  39  62 S7        29.92S
LITTLE FALLS   CLEAR     46  36  66 CALM      29.93R
LITCHFIELD     CLEAR     50  41  71 CALM      29.95S
BUFFALO        PTCLDY    48  41  76 CALM      29.96S
MAPLE LAKE     PTCLDY    50  43  76 SE3       29.95S
$$
MNZ037-044-045-052-053-240500-
   East Central Minnesota

CITY           SKY/WX    TMP DP  RH WIND       PRES   REMARKS
PRINCETON      CLEAR     46  45  93 CALM      29.94S
MORA           CLEAR     46  45  93 CALM      29.95F
CAMBRIDGE      CLEAR     52  45  76 SE5       29.93S
RUSH CITY      PTCLDY    48  47  95 S5        29.95S
MOOSE LAKE     FOG       46  45  93 S5        29.91F VSB 1
HINCKLEY       FAIR      48  48 100 S5        29.94F FOG
CLOQUET        CLEAR     48  46  93 S3        29.92F FOG
MCGREGOR       CLEAR     48  46  93 S6        29.91S
$$
MNZ071>073-080-081-089-090-097-098-240500-
   Southwest Minnesota

CITY           SKY/WX    TMP DP  RH WIND       PRES   REMARKS
MONTEVIDEO     MOCLDY    54  45  71 S7        29.92F
GRANITE FALLS  PTCLDY    51  44  77 SE7       29.93F
CANBY          CLOUDY    57  45  63 S9        29.90F
MARSHALL       MOCLDY    55  43  62 S13       29.91F
REDWOOD FALLS  PTCLDY    51  42  71 S9        29.94S
OLIVIA         CLEAR     50  41  71 S6        29.93S
PIPESTONE      MOCLDY    54  45  71 S8        29.93F
WINDOM         PTCLDY    52  43  71 CALM      29.97F
WORTHINGTON    MOCLDY    54  43  66 S12       29.98S
JACKSON        CLEAR     52  43  71 S5        29.98F
TRACY          MOCLDY    56  44  64 S12       29.94S
SLAYTON        MOCLDY    51  44  76 S10       29.96S
$$
MNZ065>067-074>077-082>085-091>093-240500-
   South Central Minnesota

CITY           SKY/WX    TMP DP  RH WIND       PRES   REMARKS
MANKATO        CLEAR     48  37  66 SE8       29.97S
NEW ULM        CLEAR     46  39  76 S6        29.96S
ST JAMES       CLEAR     52  39  62 S6        29.98S
FAIRMONT       CLEAR     48  37  66 S6        29.98S
GLENCOE        CLEAR     54  41  62 S6        29.95S
FARIBAULT      CLEAR     52  48  87 S6        29.98F
OWATONNA       CLEAR     52  48  87 SE10      29.98F
WASECA         CLEAR     45  41  87 SE8       30.00S
ALBERT LEA     CLEAR     50  48  93 S3        30.00F FOG
$$
MNZ078>079-086>088-094>096-240500-
   Southeast Minnesota

CITY           SKY/WX    TMP DP  RH WIND       PRES   REMARKS
ROCHESTER      FOG       47  46  97 S8        30.02S VSB 1/4
RED WING       CLOUDY    50  48  93 SE7       29.98F FOG
STANTON        CLEAR     50  48  90 S5        29.96F
DODGE CENTER   PTCLDY    50  48  93 S12       30.00F FOG
WINONA         CLOUDY    52  50  93 CALM      30.03S
AUSTIN         DRZL/FOG  48  46  93 S3        30.01F VSB<1/4
PRESTON        FOG       47  46  97 S7        30.03S VSB 1/4
$$
ABBREVIATIONS USED IN REMARKS
   TC - TEMPERATURES IN CELSIUS
  WCI - WIND CHILL INDEX
   HX - HEAT INDEX
  VSB - VISIBILITY
$$



USA.gov is the U.S. government's official web portal to all federal, state and local government web resources and services.